Time,TemperatureF,DewpointF,PressureIn,WindDirection,WindDirectionDegrees,WindSpeedMPH,WindSpeedGustMPH,Humidity,HourlyPrecipIn,Conditions,Clouds,dailyrainin,SolarRadiationWatts/m^2,SoftwareType,DateUTC
2016-07-27 00:03:00,68.0,64.0,29.96,NW,323,0.0,0.0,87,0.00,,,0.00,0,Wunderground v.1.15,2016-07-27 05:03:00,
2016-07-27 00:09:00,68.0,64.3,29.96,NW,323,0.0,0.0,88,0.00,,,0.00,0,Wunderground v.1.15,2016-07-27 05:09:00,
2016-07-27 00:14:00,67.9,64.2,29.96,NW,323,0.0,0.0,88,0.00,,,0.00,0,Wunderground v.1.15,2016-07-27 05:14:00,
2016-07-27 00:19:00,67.7,64.0,29.96,NW,323,0.0,0.0,88,0.00,,,0.00,0,Wunderground v.1.15,2016-07-27 05:19:00,
2016-07-27 00:24:00,67.6,63.9,29.96,NW,323,0.0,0.0,88,0.00,,,0.00,0,Wunderground v.1.15,2016-07-27 05:24:00,
2016-07-27 00:30:00,67.4,63.4,29.95,NW,323,0.0,0.0,87,0.00,,,0.00,0,Wunderground v.1.15,2016-07-27 05:30:00,
2016-07-27 00:35:00,67.2,63.5,29.96,NW,323,0.0,0.0,88,0.00,,,0.00,0,Wunderground v.1.15,2016-07-27 05:35:00,
2016-07-27 00:41:00,67.2,63.5,29.96,NW,323,0.0,0.0,88,0.00,,,0.00,0,Wunderground v.1.15,2016-07-27 05:41:00,
2016-07-27 00:46:00,67.1,63.7,29.96,NW,323,0.0,0.0,89,0.00,,,0.00,0,Wunderground v.1.15,2016-07-27 05:46:00,
2016-07-27 00:51:00,67.0,63.6,29.96,NW,323,0.0,0.0,89,0.00,,,0.00,0,Wunderground v.1.15,2016-07-27 05:51:00,
2016-07-27 00:57:00,67.1,64.1,29.96,NW,323,0.0,0.0,90,0.00,,,0.00,0,Wunderground v.1.15,2016-07-27 05:57:00,
2016-07-27 01:02:00,67.0,64.0,29.96,NW,323,0.0,0.0,90,0.00,,,0.00,0,Wunderground v.1.15,2016-07-27 06:02:00,
2016-07-27 01:07:00,66.8,63.8,29.96,NW,323,0.0,0.0,90,0.00,,,0.00,0,Wunderground v.1.15,2016-07-27 06:07:00,
2016-07-27 01:13:00,66.6,63.9,29.96,NW,323,0.0,0.0,91,0.00,,,0.00,0,Wunderground v.1.15,2016-07-27 06:13:00,
2016-07-27 01:18:00,66.5,63.8,29.96,NW,323,0.0,0.0,91,0.00,,,0.00,0,Wunderground v.1.15,2016-07-27 06:18:00,
2016-07-27 01:23:00,66.5,63.8,29.96,NW,323,0.0,0.0,91,0.00,,,0.00,0,Wunderground v.1.15,2016-07-27 06:23:00,
2016-07-27 01:29:00,66.4,63.7,29.96,NW,323,0.0,0.0,91,0.00,,,0.00,0,Wunderground v.1.15,2016-07-27 06:29:00,
2016-07-27 01:34:00,66.2,63.5,29.96,NW,323,0.0,0.0,91,0.00,,,0.00,0,Wunderground v.1.15,2016-07-27 06:34:00,
2016-07-27 01:39:00,66.1,63.4,29.96,NW,323,0.0,0.0,91,0.00,,,0.00,0,Wunderground v.1.15,2016-07-27 06:39:00,
2016-07-27 01:44:00,66.1,63.4,29.96,NW,323,0.0,0.0,91,0.00,,,0.00,0,Wunderground v.1.15,2016-07-27 06:44:00,
2016-07-27 01:50:00,66.0,63.3,29.95,NW,323,0.0,0.0,91,0.00,,,0.00,0,Wunderground v.1.15,2016-07-27 06:50:00,
2016-07-27 01:56:00,65.9,63.5,29.95,NW,323,0.0,0.0,92,0.00,,,0.00,0,Wunderground v.1.15,2016-07-27 06:56:00,
2016-07-27 02:01:00,65.9,63.5,29.95,NW,323,0.0,0.0,92,0.00,,,0.00,0,Wunderground v.1.15,2016-07-27 07:01:00,
2016-07-27 02:06:00,65.8,63.4,29.95,NW,323,0.0,0.0,92,0.00,,,0.00,0,Wunderground v.1.15,2016-07-27 07:06:00,
2016-07-27 02:11:00,65.8,63.7,29.95,NW,323,0.0,0.0,93,0.00,,,0.00,0,Wunderground v.1.15,2016-07-27 07:11:00,
2016-07-27 02:16:00,65.7,63.3,29.95,NW,323,0.0,0.0,92,0.00,,,0.00,0,Wunderground v.1.15,2016-07-27 07:16:00,
2016-07-27 02:21:00,65.5,63.1,29.95,NW,323,0.0,0.0,92,0.00,,,0.00,0,Wunderground v.1.15,2016-07-27 07:21:00,
2016-07-27 02:26:00,65.4,63.0,29.95,NW,323,0.0,0.0,92,0.00,,,0.00,0,Wunderground v.1.15,2016-07-27 07:26:00,
2016-07-27 02:31:00,65.3,62.9,29.96,NW,323,0.0,0.0,92,0.00,,,0.00,0,Wunderground v.1.15,2016-07-27 07:31:00,
2016-07-27 02:36:00,65.2,62.8,29.95,NW,323,0.0,0.0,92,0.00,,,0.00,0,Wunderground v.1.15,2016-07-27 07:36:00,
2016-07-27 02:41:00,65.1,62.7,29.96,NW,323,0.0,0.0,92,0.00,,,0.00,0,Wunderground v.1.15,2016-07-27 07:41:00,
2016-07-27 02:46:00,65.0,62.6,29.96,NW,323,0.0,0.0,92,0.00,,,0.00,0,Wunderground v.1.15,2016-07-27 07:46:00,
2016-07-27 02:51:00,64.9,62.5,29.96,NW,323,0.0,0.0,92,0.00,,,0.00,0,Wunderground v.1.15,2016-07-27 07:51:00,
2016-07-27 02:56:00,64.8,62.4,29.95,NW,323,0.0,0.0,92,0.00,,,0.00,0,Wunderground v.1.15,2016-07-27 07:56:00,
2016-07-27 03:01:00,64.9,62.8,29.95,NW,323,0.0,0.0,93,0.00,,,0.00,0,Wunderground v.1.15,2016-07-27 08:01:00,
2016-07-27 03:06:00,64.8,62.7,29.96,NW,323,0.0,0.0,93,0.00,,,0.00,0,Wunderground v.1.15,2016-07-27 08:06:00,
2016-07-27 03:11:00,64.7,62.6,29.95,NW,323,0.0,0.0,93,0.00,,,0.00,0,Wunderground v.1.15,2016-07-27 08:11:00,
2016-07-27 03:16:00,64.7,62.6,29.95,NW,323,0.0,0.0,93,0.00,,,0.00,0,Wunderground v.1.15,2016-07-27 08:16:00,
2016-07-27 03:21:00,64.5,62.4,29.95,NW,323,0.0,0.0,93,0.00,,,0.00,0,Wunderground v.1.15,2016-07-27 08:21:00,
2016-07-27 03:26:00,64.6,62.8,29.95,NW,323,0.0,0.0,94,0.00,,,0.00,0,Wunderground v.1.15,2016-07-27 08:26:00,
2016-07-27 03:31:00,64.7,62.9,29.95,NW,323,0.0,0.0,94,0.00,,,0.00,0,Wunderground v.1.15,2016-07-27 08:31:00,
2016-07-27 03:36:00,64.7,62.9,29.95,NW,323,0.0,0.0,94,0.00,,,0.00,0,Wunderground v.1.15,2016-07-27 08:36:00,
2016-07-27 03:41:00,64.5,62.4,29.95,NW,323,0.0,0.0,93,0.00,,,0.00,0,Wunderground v.1.15,2016-07-27 08:41:00,
2016-07-27 03:46:00,64.7,62.9,29.96,NW,323,0.0,0.0,94,0.00,,,0.00,0,Wunderground v.1.15,2016-07-27 08:46:00,
2016-07-27 03:51:00,64.6,62.8,29.96,NW,323,0.0,0.0,94,0.00,,,0.00,0,Wunderground v.1.15,2016-07-27 08:51:00,
2016-07-27 03:56:00,64.5,62.7,29.95,NW,323,0.0,0.0,94,0.00,,,0.00,0,Wunderground v.1.15,2016-07-27 08:56:00,
2016-07-27 04:01:00,64.4,62.6,29.96,NW,323,0.0,0.0,94,0.00,,,0.00,0,Wunderground v.1.15,2016-07-27 09:01:00,
2016-07-27 04:06:00,64.3,62.5,29.96,NW,323,0.0,0.0,94,0.00,,,0.00,0,Wunderground v.1.15,2016-07-27 09:06:00,
2016-07-27 04:11:00,64.2,62.4,29.96,NW,323,0.0,0.0,94,0.00,,,0.00,0,Wunderground v.1.15,2016-07-27 09:11:00,
2016-07-27 04:12:00,64.2,62.4,29.96,NW,323,0.0,0.0,94,0.00,,,0.00,0,Wunderground v.1.15,2016-07-27 09:12:00,
2016-07-27 04:13:00,64.2,62.4,29.95,NW,323,0.0,0.0,94,0.00,,,0.00,0,Wunderground v.1.15,2016-07-27 09:13:00,
2016-07-27 04:18:00,64.3,62.5,29.95,NW,323,0.0,0.0,94,0.00,,,0.00,0,Wunderground v.1.15,2016-07-27 09:18:00,
2016-07-27 04:28:00,64.0,62.2,29.96,NW,323,0.0,0.0,94,0.00,,,0.00,0,Wunderground v.1.15,2016-07-27 09:28:00,
2016-07-27 04:33:00,63.8,62.0,29.96,NW,323,0.0,0.0,94,0.00,,,0.00,0,Wunderground v.1.15,2016-07-27 09:33:00,
2016-07-27 04:38:00,63.8,62.0,29.96,NW,323,0.0,0.0,94,0.00,,,0.00,0,Wunderground v.1.15,2016-07-27 09:38:00,
2016-07-27 04:43:00,63.7,61.9,29.96,NW,323,0.0,0.0,94,0.00,,,0.00,0,Wunderground v.1.15,2016-07-27 09:43:00,
2016-07-27 04:48:00,63.6,61.8,29.96,NW,323,0.0,0.0,94,0.00,,,0.00,0,Wunderground v.1.15,2016-07-27 09:48:00,
2016-07-27 04:53:00,63.5,61.7,29.96,NW,323,0.0,0.0,94,0.00,,,0.00,0,Wunderground v.1.15,2016-07-27 09:53:00,
2016-07-27 04:58:00,63.5,61.7,29.97,NW,323,0.0,0.0,94,0.00,,,0.00,0,Wunderground v.1.15,2016-07-27 09:58:00,
2016-07-27 05:03:00,63.5,61.7,29.97,NW,323,0.0,0.0,94,0.00,,,0.00,0,Wunderground v.1.15,2016-07-27 10:03:00,
2016-07-27 05:08:00,63.4,61.6,29.97,NW,323,0.0,0.0,94,0.00,,,0.00,0,Wunderground v.1.15,2016-07-27 10:08:00,
2016-07-27 05:13:00,63.4,61.6,29.97,NW,323,0.0,0.0,94,0.00,,,0.00,0,Wunderground v.1.15,2016-07-27 10:13:00,
2016-07-27 05:18:00,63.4,61.9,29.97,NW,323,0.0,0.0,95,0.00,,,0.00,0,Wunderground v.1.15,2016-07-27 10:18:00,
2016-07-27 05:23:00,63.4,61.6,29.97,NW,323,0.0,0.0,94,0.00,,,0.00,0,Wunderground v.1.15,2016-07-27 10:23:00,
2016-07-27 05:28:00,63.3,61.5,29.97,NW,323,0.0,0.0,94,0.00,,,0.00,0,Wunderground v.1.15,2016-07-27 10:28:00,
2016-07-27 05:33:00,63.3,61.5,29.97,NW,323,0.0,0.0,94,0.00,,,0.00,0,Wunderground v.1.15,2016-07-27 10:33:00,
2016-07-27 05:38:00,63.3,61.5,29.97,NW,323,0.0,0.0,94,0.00,,,0.00,0,Wunderground v.1.15,2016-07-27 10:38:00,
2016-07-27 05:43:00,63.2,61.4,29.97,NW,323,0.0,0.0,94,0.00,,,0.00,0,Wunderground v.1.15,2016-07-27 10:43:00,
2016-07-27 05:48:00,63.2,61.4,29.97,NW,323,0.0,0.0,94,0.00,,,0.00,5,Wunderground v.1.15,2016-07-27 10:48:00,
2016-07-27 05:53:00,63.2,61.4,29.97,NW,323,0.0,0.0,94,0.00,,,0.00,9,Wunderground v.1.15,2016-07-27 10:53:00,
2016-07-27 05:58:00,63.2,61.4,29.98,NW,323,0.0,0.0,94,0.00,,,0.00,12,Wunderground v.1.15,2016-07-27 10:58:00,
2016-07-27 06:04:00,63.2,61.4,29.98,NW,323,0.0,0.0,94,0.00,,,0.00,21,Wunderground v.1.15,2016-07-27 11:04:00,
2016-07-27 06:09:00,63.2,61.4,29.98,NW,323,0.0,0.0,94,0.00,,,0.00,28,Wunderground v.1.15,2016-07-27 11:09:00,
2016-07-27 06:14:00,63.3,61.8,29.98,NW,323,0.0,0.0,95,0.00,,,0.00,39,Wunderground v.1.15,2016-07-27 11:14:00,
2016-07-27 06:19:00,63.6,62.1,29.98,NW,323,0.0,0.0,95,0.00,,,0.00,47,Wunderground v.1.15,2016-07-27 11:19:00,
2016-07-27 06:24:00,63.9,62.4,29.98,NW,323,0.0,0.0,95,0.00,,,0.00,60,Wunderground v.1.15,2016-07-27 11:24:00,
2016-07-27 06:29:00,64.3,62.8,29.98,NW,323,0.0,0.0,95,0.00,,,0.00,69,Wunderground v.1.15,2016-07-27 11:29:00,
2016-07-27 06:34:00,64.7,63.2,29.98,NW,323,0.0,0.0,95,0.00,,,0.00,84,Wunderground v.1.15,2016-07-27 11:34:00,
2016-07-27 06:39:00,65.1,63.9,29.98,NW,323,0.0,0.0,96,0.00,,,0.00,97,Wunderground v.1.15,2016-07-27 11:39:00,
2016-07-27 06:44:00,65.7,64.5,29.98,NW,323,0.0,0.0,96,0.00,,,0.00,114,Wunderground v.1.15,2016-07-27 11:44:00,
2016-07-27 06:49:00,66.1,64.9,29.98,NW,323,0.0,0.0,96,0.00,,,0.00,128,Wunderground v.1.15,2016-07-27 11:49:00,
2016-07-27 06:54:00,66.5,65.3,29.98,NW,323,0.0,0.0,96,0.00,,,0.00,123,Wunderground v.1.15,2016-07-27 11:54:00,
2016-07-27 06:59:00,66.9,65.7,29.98,NW,323,0.0,0.0,96,0.00,,,0.00,58,Wunderground v.1.15,2016-07-27 11:59:00,
2016-07-27 07:04:00,67.1,65.9,29.98,NW,323,0.0,0.0,96,0.00,,,0.00,62,Wunderground v.1.15,2016-07-27 12:04:00,
2016-07-27 07:09:00,67.2,65.7,29.97,NW,323,0.0,0.0,95,0.00,,,0.00,97,Wunderground v.1.15,2016-07-27 12:09:00,
2016-07-27 07:14:00,67.2,65.7,29.97,NW,323,0.0,0.0,95,0.00,,,0.00,156,Wunderground v.1.15,2016-07-27 12:14:00,
2016-07-27 07:19:00,67.3,66.1,29.97,NW,323,0.0,0.0,96,0.00,,,0.00,118,Wunderground v.1.15,2016-07-27 12:19:00,
2016-07-27 07:24:00,67.7,66.5,29.97,NW,323,0.0,0.0,96,0.00,,,0.00,250,Wunderground v.1.15,2016-07-27 12:24:00,
2016-07-27 07:29:00,68.1,67.2,29.97,NW,323,0.0,0.0,97,0.00,,,0.00,206,Wunderground v.1.15,2016-07-27 12:29:00,
2016-07-27 07:34:00,68.6,67.7,29.97,NW,323,0.0,0.0,97,0.00,,,0.00,97,Wunderground v.1.15,2016-07-27 12:34:00,
2016-07-27 07:39:00,68.9,67.7,29.98,NW,323,0.0,0.0,96,0.00,,,0.00,304,Wunderground v.1.15,2016-07-27 12:39:00,
2016-07-27 07:44:00,69.2,68.0,29.98,NW,323,1.0,1.0,96,0.00,,,0.00,322,Wunderground v.1.15,2016-07-27 12:44:00,
2016-07-27 07:49:00,69.6,68.7,29.98,NW,323,0.0,2.0,97,0.00,,,0.00,141,Wunderground v.1.15,2016-07-27 12:49:00,
2016-07-27 07:54:00,70.0,69.1,29.97,NW,323,0.0,1.0,97,0.00,,,0.00,327,Wunderground v.1.15,2016-07-27 12:54:00,
2016-07-27 07:59:00,70.4,69.2,29.97,NW,323,1.0,2.0,96,0.00,,,0.00,341,Wunderground v.1.15,2016-07-27 12:59:00,
2016-07-27 08:04:00,70.7,69.2,29.97,NW,323,0.0,3.0,95,0.00,,,0.00,350,Wunderground v.1.15,2016-07-27 13:04:00,
2016-07-27 08:09:00,71.3,69.5,29.97,NW,323,0.0,3.0,94,0.00,,,0.00,371,Wunderground v.1.15,2016-07-27 13:09:00,
2016-07-27 08:14:00,72.1,70.3,29.97,NW,323,0.0,2.0,94,0.00,,,0.00,348,Wunderground v.1.15,2016-07-27 13:14:00,
2016-07-27 08:19:00,72.7,70.2,29.97,NW,323,2.0,3.0,92,0.00,,,0.00,422,Wunderground v.1.15,2016-07-27 13:19:00,
2016-07-27 08:24:00,73.4,70.6,29.97,NW,323,0.0,3.0,91,0.00,,,0.00,439,Wunderground v.1.15,2016-07-27 13:24:00,
2016-07-27 08:29:00,74.1,71.0,29.97,NW,323,0.0,3.0,90,0.00,,,0.00,454,Wunderground v.1.15,2016-07-27 13:29:00,
2016-07-27 08:34:00,74.7,71.2,29.97,West,277,2.0,4.0,89,0.00,,,0.00,471,Wunderground v.1.15,2016-07-27 13:34:00,
2016-07-27 08:39:00,75.5,71.4,29.97,West,277,1.0,4.0,87,0.00,,,0.00,483,Wunderground v.1.15,2016-07-27 13:39:00,
2016-07-27 08:44:00,76.0,71.8,29.97,West,277,1.0,3.0,87,0.00,,,0.00,499,Wunderground v.1.15,2016-07-27 13:44:00,
2016-07-27 08:49:00,76.6,72.1,29.97,West,276,0.0,4.0,86,0.00,,,0.00,512,Wunderground v.1.15,2016-07-27 13:49:00,
2016-07-27 08:54:00,77.1,72.6,29.97,West,276,0.0,2.0,86,0.00,,,0.00,527,Wunderground v.1.15,2016-07-27 13:54:00,
2016-07-27 08:59:00,77.6,72.7,29.96,West,277,0.0,3.0,85,0.00,,,0.00,548,Wunderground v.1.15,2016-07-27 13:59:00,
2016-07-27 09:04:00,78.1,72.9,29.97,West,277,2.0,4.0,84,0.00,,,0.00,566,Wunderground v.1.15,2016-07-27 14:04:00,
2016-07-27 09:09:00,78.6,73.0,29.97,West,277,0.0,4.0,83,0.00,,,0.00,570,Wunderground v.1.15,2016-07-27 14:09:00,
2016-07-27 09:14:00,79.1,73.1,29.97,WNW,288,0.0,4.0,82,0.00,,,0.00,580,Wunderground v.1.15,2016-07-27 14:14:00,
2016-07-27 09:19:00,79.5,73.5,29.97,WNW,288,1.0,4.0,82,0.00,,,0.00,548,Wunderground v.1.15,2016-07-27 14:19:00,
2016-07-27 09:24:00,79.8,73.4,29.97,WNW,288,0.0,3.0,81,0.00,,,0.00,615,Wunderground v.1.15,2016-07-27 14:24:00,
2016-07-27 09:29:00,80.2,73.1,29.97,WNW,302,0.0,5.0,79,0.00,,,0.00,626,Wunderground v.1.15,2016-07-27 14:29:00,
2016-07-27 09:35:00,80.5,72.6,29.96,WNW,302,2.0,5.0,77,0.00,,,0.00,635,Wunderground v.1.15,2016-07-27 14:35:00,
2016-07-27 09:40:00,80.8,72.9,29.97,WSW,257,1.0,1.0,77,0.00,,,0.00,650,Wunderground v.1.15,2016-07-27 14:40:00,
2016-07-27 09:45:00,81.2,73.7,29.97,WSW,257,2.0,2.0,78,0.00,,,0.00,647,Wunderground v.1.15,2016-07-27 14:45:00,
2016-07-27 09:50:00,81.4,73.1,29.96,WSW,253,0.0,1.0,76,0.00,,,0.00,661,Wunderground v.1.15,2016-07-27 14:50:00,
2016-07-27 09:55:00,81.5,72.8,29.96,WNW,294,0.0,5.0,75,0.00,,,0.00,687,Wunderground v.1.15,2016-07-27 14:55:00,
2016-07-27 10:00:00,81.6,72.5,29.96,NW,314,1.0,2.0,74,0.00,,,0.00,666,Wunderground v.1.15,2016-07-27 15:00:00,
2016-07-27 10:05:00,81.8,73.5,29.96,WNW,285,1.0,5.0,76,0.00,,,0.00,666,Wunderground v.1.15,2016-07-27 15:05:00,
2016-07-27 10:10:00,82.2,73.5,29.96,WSW,242,3.0,3.0,75,0.00,,,0.00,735,Wunderground v.1.15,2016-07-27 15:10:00,
2016-07-27 10:15:00,82.5,73.4,29.96,WSW,239,2.0,6.0,74,0.00,,,0.00,728,Wunderground v.1.15,2016-07-27 15:15:00,
2016-07-27 10:20:00,82.6,73.1,29.96,WNW,299,1.0,2.0,73,0.00,,,0.00,782,Wunderground v.1.15,2016-07-27 15:20:00,
2016-07-27 10:25:00,82.8,73.3,29.97,West,275,0.0,4.0,73,0.00,,,0.00,390,Wunderground v.1.15,2016-07-27 15:25:00,
2016-07-27 10:30:00,82.7,73.2,29.97,West,259,0.0,1.0,73,0.00,,,0.00,425,Wunderground v.1.15,2016-07-27 15:30:00,
2016-07-27 10:35:00,82.5,72.1,29.97,West,273,0.0,6.0,71,0.00,,,0.00,503,Wunderground v.1.15,2016-07-27 15:35:00,
2016-07-27 10:40:00,82.7,72.7,29.97,WSW,243,0.0,2.0,72,0.00,,,0.00,751,Wunderground v.1.15,2016-07-27 15:40:00,
2016-07-27 10:45:00,83.2,73.6,29.96,West,275,3.0,4.0,73,0.00,,,0.00,788,Wunderground v.1.15,2016-07-27 15:45:00,
2016-07-27 10:50:00,83.2,72.4,29.96,NW,306,1.0,2.0,70,0.00,,,0.00,802,Wunderground v.1.15,2016-07-27 15:50:00,
2016-07-27 10:55:00,83.3,72.9,29.97,NW,310,2.0,7.0,71,0.00,,,0.00,798,Wunderground v.1.15,2016-07-27 15:55:00,
2016-07-27 11:00:00,83.5,73.1,29.97,West,261,1.0,2.0,71,0.00,,,0.00,835,Wunderground v.1.15,2016-07-27 16:00:00,
2016-07-27 11:05:00,83.7,74.1,29.96,West,261,0.0,2.0,73,0.00,,,0.00,893,Wunderground v.1.15,2016-07-27 16:05:00,
2016-07-27 11:10:00,83.9,73.5,29.96,WNW,289,0.0,1.0,71,0.00,,,0.00,297,Wunderground v.1.15,2016-07-27 16:10:00,
2016-07-27 11:15:00,83.8,73.0,29.96,WNW,289,0.0,3.0,70,0.00,,,0.00,288,Wunderground v.1.15,2016-07-27 16:15:00,
2016-07-27 11:20:00,83.7,73.3,29.96,WNW,286,1.0,1.0,71,0.00,,,0.00,1092,Wunderground v.1.15,2016-07-27 16:20:00,
2016-07-27 11:25:00,84.0,74.0,29.96,West,275,1.0,5.0,72,0.00,,,0.00,1005,Wunderground v.1.15,2016-07-27 16:25:00,
2016-07-27 11:30:00,84.5,73.2,29.96,WSW,244,1.0,4.0,69,0.00,,,0.00,988,Wunderground v.1.15,2016-07-27 16:30:00,
2016-07-27 11:35:00,84.7,73.4,29.96,WSW,244,0.0,4.0,69,0.00,,,0.00,965,Wunderground v.1.15,2016-07-27 16:35:00,
2016-07-27 11:40:00,85.0,74.5,29.96,South,177,0.0,3.0,71,0.00,,,0.00,977,Wunderground v.1.15,2016-07-27 16:40:00,
2016-07-27 11:45:00,84.8,73.5,29.96,WSW,254,3.0,5.0,69,0.00,,,0.00,547,Wunderground v.1.15,2016-07-27 16:45:00,
2016-07-27 11:50:00,84.7,73.0,29.96,WSW,257,0.0,2.0,68,0.00,,,0.00,478,Wunderground v.1.15,2016-07-27 16:50:00,
2016-07-27 11:55:00,84.9,73.2,29.96,West,260,3.0,5.0,68,0.00,,,0.00,1011,Wunderground v.1.15,2016-07-27 16:55:00,
2016-07-27 12:00:00,85.2,73.9,29.96,WSW,254,3.0,5.0,69,0.00,,,0.00,1025,Wunderground v.1.15,2016-07-27 17:00:00,
2016-07-27 12:06:00,85.3,73.5,29.96,WSW,254,2.0,5.0,68,0.00,,,0.00,262,Wunderground v.1.15,2016-07-27 17:06:00,
2016-07-27 12:11:00,84.8,73.5,29.97,WSW,244,0.0,2.0,69,0.00,,,0.00,283,Wunderground v.1.15,2016-07-27 17:11:00,
2016-07-27 12:16:00,84.8,74.3,29.96,WSW,238,1.0,6.0,71,0.00,,,0.00,1037,Wunderground v.1.15,2016-07-27 17:16:00,
2016-07-27 12:21:00,85.0,75.0,29.96,South,173,1.0,2.0,72,0.00,,,0.00,972,Wunderground v.1.15,2016-07-27 17:21:00,
2016-07-27 12:26:00,85.1,73.3,29.96,WSW,243,0.0,5.0,68,0.00,,,0.00,1151,Wunderground v.1.15,2016-07-27 17:26:00,
2016-07-27 12:31:00,85.2,73.9,29.95,WSW,247,0.0,2.0,69,0.00,,,0.00,872,Wunderground v.1.15,2016-07-27 17:31:00,
2016-07-27 12:36:00,85.3,73.5,29.95,West,278,2.0,3.0,68,0.00,,,0.00,768,Wunderground v.1.15,2016-07-27 17:36:00,
2016-07-27 12:41:00,85.2,72.6,29.94,WNW,283,0.0,2.0,66,0.00,,,0.00,888,Wunderground v.1.15,2016-07-27 17:41:00,
2016-07-27 12:46:00,85.4,73.2,29.94,WNW,283,0.0,3.0,67,0.00,,,0.00,977,Wunderground v.1.15,2016-07-27 17:46:00,
2016-07-27 12:51:00,85.8,73.6,29.94,WNW,282,2.0,3.0,67,0.00,,,0.00,1009,Wunderground v.1.15,2016-07-27 17:51:00,
2016-07-27 12:56:00,85.6,73.8,29.94,SE,145,5.0,8.0,68,0.00,,,0.00,726,Wunderground v.1.15,2016-07-27 17:56:00,
2016-07-27 13:01:00,84.9,74.0,29.94,South,176,0.0,3.0,70,0.00,,,0.00,765,Wunderground v.1.15,2016-07-27 18:01:00,
2016-07-27 13:06:00,84.9,74.4,29.94,South,171,0.0,4.0,71,0.00,,,0.00,891,Wunderground v.1.15,2016-07-27 18:06:00,
2016-07-27 13:11:00,84.8,72.6,29.93,South,171,0.0,1.0,67,0.00,,,0.00,881,Wunderground v.1.15,2016-07-27 18:11:00,
2016-07-27 13:16:00,84.9,73.6,29.93,South,171,0.0,3.0,69,0.00,,,0.00,860,Wunderground v.1.15,2016-07-27 18:16:00,
2016-07-27 13:21:00,85.0,73.7,29.93,South,171,0.0,5.0,69,0.00,,,0.00,925,Wunderground v.1.15,2016-07-27 18:21:00,
2016-07-27 13:26:00,85.0,73.3,29.93,South,182,0.0,5.0,68,0.00,,,0.00,868,Wunderground v.1.15,2016-07-27 18:26:00,
2016-07-27 13:31:00,85.2,72.6,29.93,South,186,0.0,3.0,66,0.00,,,0.00,905,Wunderground v.1.15,2016-07-27 18:31:00,
2016-07-27 13:36:00,85.6,73.8,29.93,South,171,0.0,5.0,68,0.00,,,0.00,953,Wunderground v.1.15,2016-07-27 18:36:00,
2016-07-27 13:41:00,85.5,73.7,29.93,SSE,164,2.0,6.0,68,0.00,,,0.00,847,Wunderground v.1.15,2016-07-27 18:41:00,
2016-07-27 13:46:00,85.3,72.2,29.93,SSE,164,0.0,6.0,65,0.00,,,0.00,921,Wunderground v.1.15,2016-07-27 18:46:00,
2016-07-27 13:51:00,85.3,73.1,29.93,SSE,164,3.0,5.0,67,0.00,,,0.00,986,Wunderground v.1.15,2016-07-27 18:51:00,
2016-07-27 13:56:00,85.1,73.8,29.93,SSE,162,1.0,5.0,69,0.00,,,0.00,990,Wunderground v.1.15,2016-07-27 18:56:00,
2016-07-27 14:01:00,84.8,71.7,29.93,SSE,162,1.0,4.0,65,0.00,,,0.00,981,Wunderground v.1.15,2016-07-27 19:01:00,
2016-07-27 14:06:00,84.6,72.0,29.93,SSE,162,0.0,6.0,66,0.00,,,0.00,953,Wunderground v.1.15,2016-07-27 19:06:00,
2016-07-27 14:11:00,84.5,71.9,29.92,SSE,162,5.0,5.0,66,0.00,,,0.00,763,Wunderground v.1.15,2016-07-27 19:11:00,
2016-07-27 14:16:00,84.4,73.1,29.92,SSE,162,2.0,5.0,69,0.00,,,0.00,664,Wunderground v.1.15,2016-07-27 19:16:00,
2016-07-27 14:21:00,84.3,73.0,29.92,SSE,162,4.0,4.0,69,0.00,,,0.00,645,Wunderground v.1.15,2016-07-27 19:21:00,
2016-07-27 14:26:00,84.0,71.9,29.92,SSE,162,0.0,5.0,67,0.00,,,0.00,596,Wunderground v.1.15,2016-07-27 19:26:00,
2016-07-27 14:31:00,83.9,71.8,29.92,SSE,162,2.0,2.0,67,0.00,,,0.00,436,Wunderground v.1.15,2016-07-27 19:31:00,
2016-07-27 14:36:00,84.0,71.4,29.92,SSE,162,1.0,5.0,66,0.00,,,0.00,598,Wunderground v.1.15,2016-07-27 19:36:00,
2016-07-27 14:41:00,84.3,72.6,29.92,SSE,162,0.0,2.0,68,0.00,,,0.00,754,Wunderground v.1.15,2016-07-27 19:41:00,
2016-07-27 14:46:00,84.6,71.5,29.92,SSE,162,0.0,5.0,65,0.00,,,0.00,947,Wunderground v.1.15,2016-07-27 19:46:00,
2016-07-27 14:51:00,84.5,71.9,29.92,SSE,161,1.0,4.0,66,0.00,,,0.00,896,Wunderground v.1.15,2016-07-27 19:51:00,
2016-07-27 14:56:00,84.7,71.6,29.92,SSE,161,0.0,4.0,65,0.00,,,0.00,867,Wunderground v.1.15,2016-07-27 19:56:00,
2016-07-27 15:01:00,85.0,72.4,29.92,SSE,162,0.0,4.0,66,0.00,,,0.00,192,Wunderground v.1.15,2016-07-27 20:01:00,
2016-07-27 15:06:00,84.5,71.0,29.92,SSE,162,0.0,4.0,64,0.00,,,0.00,874,Wunderground v.1.15,2016-07-27 20:06:00,
2016-07-27 15:11:00,84.6,72.9,29.91,SSE,162,2.0,3.0,68,0.00,,,0.00,888,Wunderground v.1.15,2016-07-27 20:11:00,
2016-07-27 15:16:00,84.6,72.4,29.91,SSE,162,1.0,3.0,67,0.00,,,0.00,216,Wunderground v.1.15,2016-07-27 20:16:00,
2016-07-27 15:21:00,84.5,72.8,29.91,SSE,167,0.0,2.0,68,0.00,,,0.00,255,Wunderground v.1.15,2016-07-27 20:21:00,
2016-07-27 15:26:00,84.8,72.2,29.91,South,173,0.0,4.0,66,0.00,,,0.00,821,Wunderground v.1.15,2016-07-27 20:26:00,